Weather History for KSLK - November, 2014

Change the Weather History Date:

Monday, November 10, 2014

  Actual Average Record
Temperature  
Mean Temperature 37 °F 35 °F  
Max Temperature 45 °F 45 °F 62 °F (1975)
Min Temperature 29 °F 25 °F 3 °F (2004)
Degree Days  
Heating Degree Days 28 30  
Month to date heating degree days 297 288  
Since 1 July heating degree days 1500 1580  
Cooling Degree Days 0 0  
Month to date cooling degree days 0 0  
Year to date cooling degree days 83 114  
Moisture  
Dew Point 32 °F    
Average Humidity 81    
Maximum Humidity 100    
Minimum Humidity 62    
Precipitation  
Precipitation T in 0.11 in 1.25 in (1990)
Month to date precipitation 0.30 1.23  
Year to date precipitation 31.49 33.11  
Sea Level Pressure  
Sea Level Pressure 30.04 in    
Wind  
Wind Speed 5 mph (SW)    
Max Wind Speed 16 mph    
Max Gust Speed 21 mph    
Visibility 10 miles    
Events Rain , Snow    
T = Trace of Precipitation, MM = Missing Value Source: NWS Daily Summary

Daily Weather History Graph

Daily Weather History Graph

Search for Another Location

Airport or City:

Trip Planner

Search our weather history database for the weather conditions in past years. The results will help you decide how hot, cold, wet, or windy it might be!

Date:

Astronomy

Nov. 10, 2014 Rise Set
Actual Time 6:46 AM EST 4:34 PM EST
Civil Twilight 6:15 AM EST 5:05 PM EST
Nautical Twilight 5:40 AM EST 5:40 PM EST
Astronomical Twilight 5:06 AM EST 6:14 PM EST
Moon 7:58 PM EST (11/10) 10:08 AM EST (11/10)
Length of Visible Light 10h 50m
Length of Day
9h 48m
Waning Gibbous, 85% of the Moon is Illuminated
Nov 10
Waning Gibbous
Nov 14
Last Quarter
Nov 22
New
Nov 29
First Quarter
Dec 6
Full

Hourly Weather History & Observations

Time (EST) Temp. Windchill Dew Point Humidity Pressure Visibility Wind Dir Wind Speed Gust Speed Precip Events Conditions
12:51 AM 37.0 °F 28.9 °F 27.0 °F 67% 29.91 in 10.0 mi SW 12.7 mph - N/A   Overcast
1:51 AM 37.9 °F 30.5 °F 28.0 °F 68% 29.92 in 10.0 mi SW 11.5 mph - N/A   Overcast
2:51 AM 37.9 °F 31.5 °F 28.0 °F 68% 29.94 in 10.0 mi SW 9.2 mph - N/A   Overcast
3:51 AM 39.0 °F 33.4 °F 28.9 °F 67% 29.95 in 10.0 mi SW 8.1 mph - N/A   Overcast
4:42 AM 37.9 °F 34.4 °F 32.0 °F 79% 29.94 in 8.0 mi SW 4.6 mph - 0.00 in Snow Light Snow
4:51 AM 37.9 °F 34.4 °F 32.0 °F 79% 29.99 in 9.0 mi SW 4.6 mph - 0.00 in Rain Light Rain
5:51 AM 37.9 °F 32.1 °F 33.1 °F 83% 30.01 in 10.0 mi SW 8.1 mph - 0.00 in   Overcast
6:51 AM 37.9 °F 32.7 °F 34.0 °F 86% 30.03 in 10.0 mi SW 6.9 mph - N/A   Overcast
7:32 AM 37.0 °F 32.4 °F 34.0 °F 89% 30.00 in 10.0 mi SW 5.8 mph - N/A   Overcast
7:51 AM 37.9 °F 33.5 °F 34.0 °F 86% 30.06 in 10.0 mi SW 5.8 mph - N/A   Overcast
8:51 AM 39.0 °F 34.0 °F 35.1 °F 86% 30.08 in 10.0 mi WSW 6.9 mph - N/A   Overcast
9:17 AM 39.0 °F 34.0 °F 34.0 °F 82% 30.04 in 10.0 mi WSW 6.9 mph - N/A   Overcast
9:59 AM 39.0 °F 34.8 °F 34.0 °F 82% 30.06 in 10.0 mi SW 5.8 mph - N/A   Overcast
10:51 AM 39.9 °F 35.1 °F 34.0 °F 79% 30.09 in 10.0 mi SSW 6.9 mph - N/A   Unknown
11:04 AM 41.0 °F 35.8 °F 34.0 °F 76% 30.05 in 10.0 mi SW 8.1 mph - N/A   Overcast
11:23 AM 42.1 °F 36.1 °F 34.0 °F 73% 30.06 in 10.0 mi SW 10.4 mph - N/A   Overcast
11:51 AM 42.1 °F 37.1 °F 33.1 °F 70% 30.09 in 10.0 mi SW 8.1 mph - N/A   Overcast
12:51 PM 43.0 °F 41.3 °F 34.0 °F 71% 30.10 in 10.0 mi West 3.5 mph - N/A   Overcast
1:51 PM 44.1 °F 40.8 °F 34.0 °F 68% 30.10 in 10.0 mi WSW 5.8 mph - N/A   Overcast
2:51 PM 45.0 °F 41.8 °F 33.1 °F 63% 30.09 in 10.0 mi SW 5.8 mph - N/A   Overcast
3:51 PM 44.1 °F 40.8 °F 32.0 °F 63% 30.10 in 10.0 mi SSW 5.8 mph - N/A   Mostly Cloudy
4:51 PM 37.0 °F - 32.0 °F 82% 30.10 in 10.0 mi Calm Calm - N/A   Clear
5:51 PM 32.0 °F - 30.0 °F 92% 30.11 in 10.0 mi Calm Calm - N/A   Partly Cloudy
6:51 PM 30.0 °F - 28.0 °F 92% 30.10 in 10.0 mi Calm Calm - N/A   Clear
7:51 PM 30.0 °F - 28.0 °F 92% 30.09 in 10.0 mi Calm Calm - N/A   Clear
8:51 PM 30.0 °F - 28.0 °F 92% 30.08 in 10.0 mi Calm Calm - N/A   Clear
9:51 PM 30.9 °F - 30.0 °F 96% 30.07 in 10.0 mi Calm Calm - N/A   Clear
10:51 PM 32.0 °F - 30.0 °F 92% 30.05 in 10.0 mi Calm Calm - N/A   Clear
11:51 PM 32.0 °F - 30.0 °F 92% 30.05 in 10.0 mi Calm Calm - N/A   Clear